Tracking 32964 objects as of 20-Jan-2026
HD Live streaming from Space Station
objects crossing your sky now

COSMOS 1823 DEB

Track COSMOS 1823 DEB now!
10-day predictions


NORAD ID: 18755
Int'l Code: 1987-020AG
Perigee: 1,477.4 km
Apogee: 1,529.1 km
Inclination: 73.6 °
Period: 115.9 minutes
Semi major axis: 7874 km
RCS: 0.0433 m2 (small)
Launch date: February 20, 1987
Source: Commonwealth of Independent States (former USSR) (CIS)
Launch site: PLESETSK MISSILE AND SPACE COMPLEX (PKMTR)

Note: This is SATELLITE DEBRIS
Your satellite tracking list
Your tracking list is empty




NASA's NSSDC Master Catalog

Two Line Element Set (TLE):
1 18755U 87020AG  26018.77831947  .00000067  00000-0  61108-3 0  9998
2 18755  73.6383 272.9513 0032826  41.0401  19.8695 12.42476584726464
Source of the keplerian elements: AFSPC